Monroe, MI

2:01 PM EST on December 16, 2017 (GMT -0500)
Custer

Weather History for KTTF - March, 2013

Change the Weather History Date:

Wednesday, March 20, 2013

  Actual Average Record
Temperature  
Mean Temperature 26 °F -  
Max Temperature 30 °F 45 °F 80 °F (2012)
Min Temperature 21 °F 29 °F 14 °F (1986)
Degree Days  
Heating Degree Days 40    
Moisture  
Dew Point 16 °F    
Average Humidity 63    
Maximum Humidity 74    
Minimum Humidity 51    
Precipitation  
Precipitation 0.00 in - - ()
Sea Level Pressure  
Sea Level Pressure 29.91 in    
Wind  
Wind Speed 12 mph (West)    
Max Wind Speed 22 mph    
Max Gust Speed 26 mph    
Visibility 10 miles    
Events Snow    
Averages and records for this station are not official NWS values.
T = Trace of Precipitation, MM = Missing Value Source: NWS Daily Summary

Daily Weather History Graph

Daily Weather History Graph

Search for Another Location

Airport or City:

Trip Planner

Search our weather history database for the weather conditions in past years. The results will help you decide how hot, cold, wet, or windy it might be!

Date:

Astronomy

Mar. 20, 2013 Rise Set
Actual Time 7:36 AM EDT 7:46 PM EDT
Civil Twilight 7:08 AM EDT 8:14 PM EDT
Nautical Twilight 6:36 AM EDT 8:46 PM EDT
Astronomical Twilight 6:03 AM EDT 9:20 PM EDT
Moon 1:15 PM EDT (3/20) 3:20 AM EDT (3/20)
Length of Visible Light 13h 05m
Length of Day
12h 09m
First Quarter, 59% of the Moon is Illuminated
Mar 20
First Quarter
Mar 27
Full
Apr 3
Last Quarter
Apr 10
New
Apr 18
First Quarter

Hourly Weather History & Observations

Time (EDT) Temp. Windchill Dew Point Humidity Pressure Visibility Wind Dir Wind Speed Gust Speed Precip Events Conditions
12:12 AM 28.4 °F 19.7 °F 19.4 °F 69% 29.94 in 10.0 mi West 9.2 mph - N/A   Clear
12:32 AM 28.4 °F 19.7 °F 19.4 °F 69% 29.93 in 10.0 mi West 9.2 mph - N/A   Clear
12:52 AM 28.4 °F 20.4 °F 19.4 °F 69% 29.93 in 10.0 mi West 8.1 mph - N/A   Scattered Clouds
1:12 AM 28.4 °F 18.5 °F 19.4 °F 69% 29.93 in 10.0 mi West 11.5 mph - N/A   Clear
1:33 AM 28.4 °F 19.7 °F 19.4 °F 69% 29.93 in 10.0 mi West 9.2 mph - N/A   Clear
1:53 AM 28.4 °F 16.6 °F 19.4 °F 69% 29.92 in 10.0 mi West 16.1 mph - N/A   Clear
2:13 AM 28.4 °F 18.0 °F 19.4 °F 69% 29.92 in 10.0 mi West 12.7 mph 19.6 mph N/A   Clear
2:33 AM 28.4 °F 18.5 °F 19.4 °F 69% 29.92 in 10.0 mi West 11.5 mph - N/A   Clear
2:53 AM 28.4 °F 17.5 °F 19.4 °F 69% 29.93 in 10.0 mi West 13.8 mph 19.6 mph N/A   Clear
3:13 AM 28.4 °F 19.1 °F 19.4 °F 69% 29.93 in 10.0 mi West 10.4 mph - N/A   Clear
3:33 AM 28.4 °F 18.0 °F 19.4 °F 69% 29.92 in 10.0 mi West 12.7 mph - N/A   Clear
3:53 AM 28.4 °F 19.1 °F 17.6 °F 64% 29.92 in 10.0 mi West 10.4 mph - N/A   Clear
4:13 AM 28.4 °F 18.0 °F 17.6 °F 64% 29.92 in 10.0 mi West 12.7 mph - N/A   Scattered Clouds
4:33 AM 28.4 °F 19.1 °F 17.6 °F 64% 29.91 in 10.0 mi WNW 10.4 mph - N/A   Scattered Clouds
4:54 AM 28.4 °F 18.0 °F 17.6 °F 64% 29.91 in 10.0 mi West 12.7 mph 19.6 mph N/A   Scattered Clouds
5:14 AM 28.4 °F 18.5 °F 17.6 °F 64% 29.91 in 10.0 mi West 11.5 mph - N/A   Scattered Clouds
5:34 AM 26.6 °F 18.2 °F 17.6 °F 69% 29.89 in 10.0 mi West 8.1 mph - N/A   Scattered Clouds
5:54 AM 26.6 °F 16.8 °F 17.6 °F 69% 29.91 in 10.0 mi West 10.4 mph - N/A   Clear
6:14 AM 26.6 °F 17.5 °F 17.6 °F 69% 29.91 in 10.0 mi West 9.2 mph - N/A   Clear
6:34 AM 26.6 °F 16.2 °F 17.6 °F 69% 29.91 in 10.0 mi West 11.5 mph - N/A   Clear
6:54 AM 26.6 °F 16.2 °F 15.8 °F 64% 29.91 in 10.0 mi West 11.5 mph - N/A   Clear
7:14 AM 26.6 °F 16.8 °F 15.8 °F 64% 29.91 in 10.0 mi West 10.4 mph - N/A   Scattered Clouds
7:34 AM 26.6 °F 17.5 °F 15.8 °F 64% 29.91 in 10.0 mi West 9.2 mph - N/A   Scattered Clouds
7:55 AM 26.6 °F 17.5 °F 17.6 °F 69% 29.91 in 10.0 mi West 9.2 mph - N/A   Clear
8:15 AM 26.6 °F 15.7 °F 17.6 °F 69% 29.91 in 10.0 mi West 12.7 mph - N/A   Clear
8:35 AM 26.6 °F 14.7 °F 17.6 °F 69% 29.92 in 10.0 mi West 15.0 mph - N/A   Clear
8:55 AM 26.6 °F 16.8 °F 17.6 °F 69% 29.92 in 10.0 mi West 10.4 mph - N/A   Scattered Clouds
9:15 AM 28.4 °F 18.0 °F 17.6 °F 64% 29.92 in 10.0 mi West 12.7 mph - N/A   Clear
9:35 AM 28.4 °F 16.2 °F 17.6 °F 64% 29.92 in 10.0 mi West 17.3 mph 21.9 mph N/A   Scattered Clouds
9:55 AM 28.4 °F 14.7 °F 15.8 °F 59% 29.92 in 10.0 mi West 21.9 mph 26.5 mph N/A   Scattered Clouds
10:15 AM 28.4 °F 18.0 °F 17.6 °F 64% 29.92 in 10.0 mi West 12.7 mph 20.7 mph N/A   Mostly Cloudy
10:35 AM 28.4 °F 16.2 °F 17.6 °F 64% 29.92 in 1.8 mi West 17.3 mph 23.0 mph N/A Snow Light Snow
10:56 AM 28.4 °F 16.6 °F 15.8 °F 59% 29.92 in 10.0 mi WNW 16.1 mph 20.7 mph N/A   Mostly Cloudy
11:16 AM 28.4 °F 17.0 °F 15.8 °F 59% 29.92 in 10.0 mi West 15.0 mph - N/A Snow Light Snow
11:36 AM 28.4 °F 17.5 °F 15.8 °F 59% 29.92 in 10.0 mi West 13.8 mph 20.7 mph N/A   Overcast
11:56 AM 30.2 °F 19.8 °F 15.8 °F 55% 29.91 in 10.0 mi WSW 13.8 mph 18.4 mph N/A   Overcast
12:16 PM 28.4 °F 17.0 °F 15.8 °F 59% 29.91 in 10.0 mi West 15.0 mph 20.7 mph N/A   Overcast
12:36 PM 30.2 °F 18.9 °F 15.8 °F 55% 29.91 in 10.0 mi West 16.1 mph 21.9 mph N/A   Overcast
12:51 PM 30.2 °F 20.2 °F 15.8 °F 55% 29.91 in 10.0 mi WSW 12.7 mph - N/A   Overcast
1:11 PM 30.2 °F 19.8 °F 15.8 °F 55% 29.90 in 10.0 mi West 13.8 mph - N/A   Overcast
1:32 PM 30.2 °F 18.9 °F 15.8 °F 55% 29.90 in 10.0 mi WSW 16.1 mph 23.0 mph N/A   Overcast
1:52 PM 30.2 °F 19.3 °F 15.8 °F 55% 29.90 in 10.0 mi West 15.0 mph 21.9 mph N/A   Overcast
2:12 PM 30.2 °F 20.8 °F 17.6 °F 60% 29.90 in 10.0 mi West 11.5 mph - N/A   Overcast
2:32 PM 30.2 °F 20.2 °F 17.6 °F 60% 29.89 in 10.0 mi West 12.7 mph 23.0 mph N/A   Overcast
2:52 PM 30.2 °F 19.3 °F 17.6 °F 60% 29.89 in 10.0 mi West 15.0 mph - N/A   Overcast
3:12 PM 30.2 °F 18.9 °F 15.8 °F 55% 29.89 in 10.0 mi West 16.1 mph 25.3 mph N/A   Overcast
3:32 PM 30.2 °F 18.9 °F 17.6 °F 60% 29.88 in 10.0 mi West 16.1 mph - N/A   Overcast
3:53 PM 30.2 °F 17.8 °F 17.6 °F 60% 29.89 in 10.0 mi West 19.6 mph 24.2 mph N/A   Overcast
4:13 PM 30.2 °F 18.5 °F 15.8 °F 55% 29.89 in 10.0 mi West 17.3 mph 20.7 mph N/A   Overcast
4:33 PM 28.4 °F 15.8 °F 15.8 °F 59% 29.89 in 10.0 mi West 18.4 mph 24.2 mph N/A   Overcast
4:53 PM 28.4 °F 16.6 °F 14.0 °F 55% 29.89 in 10.0 mi West 16.1 mph 23.0 mph N/A   Overcast
5:13 PM 28.4 °F 16.6 °F 12.2 °F 51% 29.89 in 10.0 mi West 16.1 mph 24.2 mph N/A   Overcast
5:33 PM 28.4 °F 17.0 °F 15.8 °F 59% 29.89 in 10.0 mi West 15.0 mph 19.6 mph N/A   Overcast
5:53 PM 28.4 °F 16.6 °F 14.0 °F 55% 29.90 in 10.0 mi WNW 16.1 mph 21.9 mph N/A   Overcast
6:13 PM 28.4 °F 16.2 °F 12.2 °F 51% 29.90 in 10.0 mi WNW 17.3 mph 20.7 mph N/A   Overcast
6:33 PM 26.6 °F 13.4 °F 12.2 °F 55% 29.91 in 10.0 mi WNW 18.4 mph 21.9 mph N/A   Overcast
6:53 PM 26.6 °F 14.7 °F 12.2 °F 55% 29.91 in 10.0 mi WNW 15.0 mph 21.9 mph N/A   Overcast
7:14 PM 26.6 °F 14.7 °F 12.2 °F 55% 29.92 in 10.0 mi West 15.0 mph 20.7 mph N/A   Overcast
7:34 PM 26.6 °F 14.7 °F 12.2 °F 55% 29.92 in 10.0 mi WNW 15.0 mph 25.3 mph N/A   Overcast
7:54 PM 24.8 °F 11.9 °F 10.4 °F 54% 29.92 in 10.0 mi West 16.1 mph 20.7 mph N/A   Overcast
8:14 PM 24.8 °F 12.4 °F 12.2 °F 59% 29.93 in 10.0 mi West 15.0 mph 23.0 mph N/A   Overcast
8:54 PM 24.8 °F 12.9 °F 10.4 °F 54% 29.94 in 10.0 mi WNW 13.8 mph 20.7 mph N/A   Mostly Cloudy
9:14 PM 23.0 °F 11.1 °F 12.2 °F 63% 29.94 in 10.0 mi WNW 12.7 mph - N/A   Scattered Clouds
9:34 PM 23.0 °F 11.1 °F 14.0 °F 68% 29.94 in 10.0 mi West 12.7 mph 20.7 mph N/A   Scattered Clouds
9:54 PM 21.2 °F 9.5 °F 14.0 °F 74% 29.93 in 10.0 mi WNW 11.5 mph 16.1 mph N/A   Scattered Clouds
10:15 PM 21.2 °F 9.5 °F 14.0 °F 74% 29.93 in 10.0 mi WNW 11.5 mph - N/A   Scattered Clouds
10:35 PM 21.2 °F 9.5 °F 12.2 °F 68% 29.93 in 10.0 mi West 11.5 mph - N/A   Clear
10:55 PM 21.2 °F 8.3 °F 12.2 °F 68% 29.94 in 10.0 mi West 13.8 mph - N/A   Clear
11:15 PM 21.2 °F 7.8 °F 12.2 °F 68% 29.93 in 10.0 mi West 15.0 mph - N/A   Clear
11:35 PM 21.2 °F 10.9 °F 12.2 °F 68% 29.93 in 10.0 mi West 9.2 mph - N/A   Clear
11:55 PM 21.2 °F 10.1 °F 12.2 °F 68% 29.92 in 10.0 mi West 10.4 mph - N/A   Clear